TimeMST,TemperatureF,Dew PointF,Humidity,Sea Level PressureIn,VisibilityMPH,Wind Direction,Wind SpeedMPH,Gust SpeedMPH,PrecipitationIn,Events,Conditions,WindDirDegrees,DateUTC
12:53 AM,28.9,21.0,72,29.96,10.0,NW,8.1,-,N/A,,Partly Cloudy,310,2013-01-26 07:53:00
1:53 AM,26.1,19.9,78,30.00,10.0,NE,6.9,-,N/A,,Clear,50,2013-01-26 08:53:00
2:53 AM,23.0,19.0,85,29.99,10.0,NE,6.9,-,N/A,,Clear,50,2013-01-26 09:53:00
3:53 AM,21.9,17.1,82,29.99,10.0,NE,9.2,-,N/A,,Clear,40,2013-01-26 10:53:00
4:53 AM,21.0,16.0,81,29.99,10.0,NNE,3.5,-,N/A,,Clear,20,2013-01-26 11:53:00
5:53 AM,18.0,14.0,84,30.02,10.0,NNE,4.6,-,N/A,,Clear,30,2013-01-26 12:53:00
6:53 AM,17.1,14.0,88,30.01,10.0,North,3.5,-,N/A,,Clear,360,2013-01-26 13:53:00
7:53 AM,19.0,12.9,77,30.01,10.0,NE,5.8,-,N/A,,Clear,40,2013-01-26 14:53:00
8:53 AM,23.0,16.0,74,29.98,10.0,NE,4.6,-,N/A,,Clear,40,2013-01-26 15:53:00
9:53 AM,27.0,17.1,66,29.96,10.0,Calm,Calm,-,N/A,,Overcast,0,2013-01-26 16:53:00
10:53 AM,28.9,19.0,67,29.94,10.0,Calm,Calm,-,N/A,,Overcast,0,2013-01-26 17:53:00
11:53 AM,34.0,18.0,52,29.86,10.0,SSE,5.8,-,N/A,,Overcast,160,2013-01-26 18:53:00
12:53 PM,33.1,19.0,56,29.81,10.0,South,11.5,-,N/A,,Overcast,180,2013-01-26 19:53:00
1:53 PM,34.0,21.0,59,29.79,10.0,South,9.2,-,N/A,,Overcast,180,2013-01-26 20:53:00
2:53 PM,34.0,23.0,64,29.78,10.0,SSW,11.5,-,N/A,,Overcast,200,2013-01-26 21:53:00
3:25 PM,30.2,26.6,86,29.95,2.5,South,16.1,-,0.00,Snow,Light Snow,180,2013-01-26 22:25:00
3:34 PM,28.4,28.4,100,29.95,1.2,South,11.5,-,0.00,Snow,Light Snow,180,2013-01-26 22:34:00
3:45 PM,28.4,28.4,100,29.95,0.8,South,9.2,-,0.01,Snow,Light Snow,170,2013-01-26 22:45:00
3:48 PM,28.4,28.4,100,29.94,1.0,South,9.2,-,0.01,Snow,Light Snow,180,2013-01-26 22:48:00
3:53 PM,28.9,28.9,100,29.81,1.0,South,10.4,-,0.01,Snow,Light Snow,170,2013-01-26 22:53:00
4:53 PM,28.9,28.9,100,29.79,1.2,South,8.1,-,0.03,Snow,Light Snow,180,2013-01-26 23:53:00
5:05 PM,28.4,28.4,100,29.91,0.8,South,5.8,-,0.00,Snow,Light Snow,180,2013-01-27 00:05:00
5:26 PM,28.4,28.4,100,29.90,2.0,South,6.9,-,0.01,Snow,Light Snow,180,2013-01-27 00:26:00
5:45 PM,28.4,28.4,100,29.89,1.8,South,4.6,-,0.01,Snow,Light Snow,190,2013-01-27 00:45:00
5:53 PM,28.9,28.9,100,29.79,2.0,South,3.5,-,0.02,Snow,Light Snow,190,2013-01-27 00:53:00
6:06 PM,28.4,28.4,100,29.89,1.2,South,4.6,-,0.00,Snow,Light Snow,180,2013-01-27 01:06:00
6:31 PM,28.4,28.4,100,29.89,2.0,South,8.1,-,0.02,Snow,Light Snow,180,2013-01-27 01:31:00
6:38 PM,28.4,28.4,100,29.89,1.8,South,8.1,-,0.03,Snow,Light Snow,180,2013-01-27 01:38:00
6:53 PM,28.9,28.9,100,29.79,1.8,South,8.1,-,0.03,Snow,Light Snow,190,2013-01-27 01:53:00
7:08 PM,28.4,28.4,100,29.88,1.2,South,6.9,-,0.02,Snow,Light Snow,180,2013-01-27 02:08:00
7:53 PM,28.9,28.0,96,29.75,1.8,South,11.5,-,0.05,Snow,Light Snow,180,2013-01-27 02:53:00
8:08 PM,28.4,28.4,100,29.86,1.0,South,12.7,-,0.00,Snow,Light Snow,180,2013-01-27 03:08:00
8:19 PM,28.4,28.4,100,29.85,0.8,South,10.4,-,0.00,Snow,Light Snow,180,2013-01-27 03:19:00
8:30 PM,28.4,28.4,100,29.85,1.8,South,11.5,-,0.00,Snow,Light Snow,180,2013-01-27 03:30:00
8:37 PM,28.4,28.4,100,29.85,2.0,South,11.5,-,0.00,Snow,Light Snow,180,2013-01-27 03:37:00
8:49 PM,28.4,28.4,100,29.84,1.5,South,10.4,-,0.01,Snow,Light Snow,180,2013-01-27 03:49:00
8:53 PM,28.0,28.0,100,29.71,1.2,South,11.5,-,0.01,Snow,Light Snow,190,2013-01-27 03:53:00
9:07 PM,28.4,28.4,100,29.84,0.5,South,10.4,-,0.00,Fog-Snow,Light Snow,180,2013-01-27 04:07:00
9:41 PM,28.4,28.4,100,29.84,0.2,South,6.9,-,0.00,Fog,Light Freezing Fog,170,2013-01-27 04:41:00
9:53 PM,28.0,28.0,100,29.67,0.2,South,8.1,-,0.00,Fog-Snow,Light Snow,170,2013-01-27 04:53:00
10:16 PM,28.4,28.4,100,29.83,0.5,SSE,5.8,-,0.00,Fog,Light Freezing Fog,160,2013-01-27 05:16:00
10:43 PM,28.4,28.4,100,29.83,1.2,Calm,Calm,-,0.00,Snow,Light Snow,0,2013-01-27 05:43:00
10:53 PM,28.0,28.0,100,29.65,2.0,Calm,Calm,-,0.00,Snow,Light Snow,0,2013-01-27 05:53:00
11:23 PM,28.4,28.4,100,29.83,3.0,Calm,Calm,-,0.00,Snow,Light Snow,0,2013-01-27 06:23:00
11:31 PM,28.4,26.6,93,29.83,1.8,Calm,Calm,-,0.01,Snow,Light Snow,0,2013-01-27 06:31:00
11:41 PM,28.4,28.4,100,29.82,1.2,Calm,Calm,-,0.01,Snow,Light Snow,0,2013-01-27 06:41:00
11:53 PM,28.0,28.0,100,29.62,1.8,Calm,Calm,-,0.01,Snow,Light Snow,0,2013-01-27 06:53:00